******************************************************************************* JPL/HORIZONS 62P/Tsuchinshan 1 2024-Apr-19 01:40:06 Rec #:90000668 (+COV) Soln.date: 2005-Jun-13_11:24:49 # obs: 733 (1984-2005) IAU76/J2000 helio. ecliptic osc. elements (au, days, deg., period=Julian yrs): EPOCH= 2453560.5 ! 2005-Jul-09.0000000 (TDB) RMSW= n.a. EC= .5780084108427596 QR= 1.489051661649776 TP= 2453347.4314513449 OM= 96.74903768918099 W= 22.86372369456345 IN= 10.50214420346948 A= 3.528628768700252 MA= 31.68213685771423 ADIST= 5.568205875750729 PER= 6.6285289611982 N= .148694573 ANGMOM= .026368837 DAN= 1.53317 DDN= 5.0272 L= 119.2682679 B= 4.0610983 MOID= .510149 TP= 2004-Dec-07.9314513449 Comet physical (GM= km^3/s^2; RAD= km): GM= n.a. RAD= n.a. M1= 13.2 M2= 15.9 k1= 15.25 k2= 5. PHCOF= .030 Comet non-gravitational force model (AMRAT=m^2/kg;A1-A3=au/d^2;DT=days;R0=au): AMRAT= 0. DT= 17.41773 A1= 5.139654278755E-9 A2= -3.354555368423E-10 A3= -1.819901168346E-9 Standard model: ALN= .1112620426 NK= 4.6142 NM= 2.15 NN= 5.093 R0= 2.808 COMET comments 1: soln ref.= JPL#K044/15, data arc: 1984-09-05 to 2005-06-07 2: k1=15.25, k2=5., phase coef.=0.03; ******************************************************************************* ******************************************************************************* Ephemeris / WWW_USER Fri Apr 19 01:40:06 2024 Pasadena, USA / Horizons ******************************************************************************* Target body name: 62P/Tsuchinshan 1 {source: JPL#K044/15} Center body name: Earth (399) {source: DE441} Center-site name: GEOCENTRIC ******************************************************************************* Start time : A.D. 2023-Dec-24 00:00:00.0000 UT Stop time : A.D. 2023-Dec-27 00:00:00.0000 UT Step-size : 180 minutes ******************************************************************************* Target pole/equ : undefined Target radii : undefined Center geodetic : 0.0, 0.0, -6378.137 {E-lon(deg),Lat(deg),Alt(km)} Center cylindric: 0.0, 0.0, 0.0 {E-lon(deg),Dxy(km),Dz(km)} Center pole/equ : ITRF93 {East-longitude positive} Center radii : 6378.137, 6378.137, 6356.752 km {Equator_a, b, pole_c} Target primary : Sun Vis. interferer : MOON (R_eq= 1737.400) km {source: DE441} Rel. light bend : Sun {source: DE441} Rel. lght bnd GM: 1.3271E+11 km^3/s^2 Small-body perts: Yes {source: SB441-N16} Atmos refraction: NO (AIRLESS) RA format : HMS Time format : CAL Calendar mode : Mixed Julian/Gregorian EOP file : eop.240418.p240712 EOP coverage : DATA-BASED 1962-JAN-20 TO 2024-APR-18. PREDICTS-> 2024-JUL-11 Units conversion: 1 au= 149597870.700 km, c= 299792.458 km/s, 1 day= 86400.0 s Table cut-offs 1: Elevation (-90.0deg=NO ),Airmass (>38.000=NO), Daylight (NO ) Table cut-offs 2: Solar elongation ( 0.0,180.0=NO ),Local Hour Angle( 0.0=NO ) Table cut-offs 3: RA/DEC angular rate ( 0.0=NO ) ******************************************************************************* Initial IAU76/J2000 heliocentric ecliptic osculating elements (au, days, deg.): EPOCH= 2453560.5 ! 2005-Jul-09.0000000 (TDB) RMSW= n.a. EC= .5780084108427596 QR= 1.489051661649776 TP= 2453347.4314513449 OM= 96.74903768918099 W= 22.86372369456345 IN= 10.50214420346948 Equivalent ICRF heliocentric cartesian coordinates (au, au/d): X=-1.993085616109379E+00 Y=-1.532505797040230E+00 Z=-2.289597623876574E-01 VX= 1.041715446590446E-03 VY=-1.124683404171549E-02 VZ=-4.794811233075020E-03 Comet physical (GM= km^3/s^2; RAD= km): GM= n.a. RAD= n.a. M1= 13.2 M2= 15.9 k1= 15.25 k2= 5. PHCOF= .030 Comet non-gravitational force model (AMRAT=m^2/kg;A1-A3=au/d^2;DT=days;R0=au): AMRAT= 0. DT= 17.41773 A1= 5.139654278755E-9 A2= -3.354555368423E-10 A3= -1.819901168346E-9 Standard model: ALN= .1112620426 NK= 4.6142 NM= 2.15 NN= 5.093 R0= 2.808 ******************************************************************************* Date__(UT)__HR:MN r rdot ************************************************** $$SOE 2023-Dec-24 00:00 1.265019318910 -0.2604072 2023-Dec-24 03:00 1.265001421010 -0.2354175 2023-Dec-24 06:00 1.264985327289 -0.2104262 2023-Dec-24 09:00 1.264971037851 -0.1854335 2023-Dec-24 12:00 1.264958552790 -0.1604396 2023-Dec-24 15:00 1.264947872186 -0.1354447 2023-Dec-24 18:00 1.264938996111 -0.1104489 2023-Dec-24 21:00 1.264931924620 -0.0854524 2023-Dec-25 00:00 1.264926657760 -0.0604553 2023-Dec-25 03:00 1.264923195564 -0.0354578 2023-Dec-25 06:00 1.264921538056 -0.0104601 2023-Dec-25 09:00 1.264921685244 0.0145377 2023-Dec-25 12:00 1.264923637128 0.0395353 2023-Dec-25 15:00 1.264927393694 0.0645327 2023-Dec-25 18:00 1.264932954916 0.0895297 2023-Dec-25 21:00 1.264940320758 0.1145261 2023-Dec-26 00:00 1.264949491171 0.1395217 2023-Dec-26 03:00 1.264960466093 0.1645164 2023-Dec-26 06:00 1.264973245453 0.1895100 2023-Dec-26 09:00 1.264987829165 0.2145024 2023-Dec-26 12:00 1.265004217133 0.2394933 2023-Dec-26 15:00 1.265022409250 0.2644827 2023-Dec-26 18:00 1.265042405395 0.2894703 2023-Dec-26 21:00 1.265064205437 0.3144560 2023-Dec-27 00:00 1.265087809231 0.3394397 $$EOE ******************************************************************************* Column meaning: TIME Times PRIOR to 1962 are UT1, a mean-solar time closely related to the prior but now-deprecated GMT. Times AFTER 1962 are in UTC, the current civil or "wall-clock" time-scale. UTC is kept within 0.9 seconds of UT1 using integer leap-seconds for 1972 and later years. Conversion from the internal Barycentric Dynamical Time (TDB) of solar system dynamics to the non-uniform civil UT time-scale requested for output has not been determined for UTC times after the next July or January 1st. Therefore, the last known leap-second is used as a constant over future intervals. Time tags refer to the UT time-scale conversion from TDB on Earth regardless of observer location within the solar system, although clock rates may differ due to the local gravity field and no analog to "UT" may be defined for that location. Any 'b' symbol in the 1st-column denotes a B.C. date. First-column blank (" ") denotes an A.D. date. CALENDAR SYSTEM Mixed calendar mode was active such that calendar dates after AD 1582-Oct-15 (if any) are in the modern Gregorian system. Dates prior to 1582-Oct-5 (if any) are in the Julian calendar system, which is automatically extended for dates prior to its adoption on 45-Jan-1 BC. The Julian calendar is useful for matching historical dates. The Gregorian calendar more accurately corresponds to the Earth's orbital motion and seasons. A "Gregorian-only" calendar mode is available if such physical events are the primary interest. NOTE: "n.a." in output means quantity "not available" at the print-time. 'r rdot' = The Sun's apparent range ("r", light-time aberrated) and range-rate ("rdot") relative to the target center, as seen by the observer. A positive "rdot" means the target center was moving away from the Sun, negative means moving toward the Sun. Units: AU and KM/S Computations by ... Solar System Dynamics Group, Horizons On-Line Ephemeris System 4800 Oak Grove Drive, Jet Propulsion Laboratory Pasadena, CA 91109 USA General site: https://ssd.jpl.nasa.gov/ Mailing list: https://ssd.jpl.nasa.gov/email_list.html System news : https://ssd.jpl.nasa.gov/horizons/news.html User Guide : https://ssd.jpl.nasa.gov/horizons/manual.html Connect : browser https://ssd.jpl.nasa.gov/horizons/app.html#/x API https://ssd-api.jpl.nasa.gov/doc/horizons.html command-line telnet ssd.jpl.nasa.gov 6775 e-mail/batch https://ssd.jpl.nasa.gov/ftp/ssd/hrzn_batch.txt scripts https://ssd.jpl.nasa.gov/ftp/ssd/SCRIPTS Author : Jon.D.Giorgini@jpl.nasa.gov ******************************************************************************* !$$SOF COMMAND = '90000668' START_TIME = '2023-Dec-24' STOP_TIME = '2023-Dec-27' STEP_SIZE = '3 hours' QUANTITIES = '19'